STARLINK-32780 (62746 NORAD) Tracking and Keplerian Element Data

This shows tracking and keplerian element data for the satellite.

Feedback or suggestion? Click here.




ElementValue
Catalog62746
NameSTARLINK-32780
Epoch Orbit221
Epoch Day35.25001157
Epoch Year2025
RAAN253.8365
Inclination42.9996
Eccentricity0.0001852
Argument of Perigee270.1412
Mean Anonmoly110.5569
Mean Motion15.64340218
Decay Rate-0.01476282
L11 62746U 25014M 25035.25001157 -.01476282 00000+0 -16755-1 0 9999
L22 62746 42.9996 253.8365 0001852 270.1412 110.5569 15.64340218 2217



Live tracking and technical data element details for STARLINK-32780 (NORAD 62746). STARLINK-32780 can be tracked NOW for your location showing map with azimuth and elevation plus other details from your city location.







IsCatalogInMostPopularTable: catalog: 62746, numindb: 2
Update: records affected: 1



GetName: 62746 STARLINK-32780

Hit Count: updated at: Sun, 09 Feb 2025 14:47:39 GMT